Weather History for Waco, TX

Change the Weather History Date:

Friday, June 1, 2012

  Actual Average Record
Temperature  
Mean Temperature 75 °F 78 °F  
Max Temperature 89 °F 89 °F 102 °F (1911)
Min Temperature 60 °F 68 °F 52 °F (1964)
Degree Days  
Heating Degree Days 0 0  
Month to date heating degree days 0 0  
Since 1 June heating degree days 0 0  
Since 1 July heating degree days 1758 2142  
Cooling Degree Days 10 13  
Month to date cooling degree days 10 13  
Year to date cooling degree days 675 465  
Since 1 June cooling degree days 10 13  
Growing Degree Days 24 (Base 50)    
Moisture  
Dew Point 53 °F    
Average Humidity 57    
Maximum Humidity 87    
Minimum Humidity 26    
Precipitation  
Precipitation 0.00 in 0.14 in 2.44 in (1909)
Month to date precipitation 0.00 0.14  
Year to date precipitation 19.83 15.03  
Sea Level Pressure  
Sea Level Pressure 29.94 in    
Wind  
Wind Speed 7 mph (NE)    
Max Wind Speed 14 mph    
Max Gust Speed 17 mph    
Visibility 10 miles    
Events      
T = Trace of Precipitation, MM = Missing Value Source: NWS Daily Summary

Daily Weather History Graph

Daily Weather History Graph

Search for Another Location

Airport:

Trip Planner

Search our weather history database for the weather conditions in past years. The results will help you decide how hot, cold, wet, or windy it might be!

Date:

Astronomy

Jun. 01, 2012 Rise Set
Actual Time 6:24 AM CDT 8:29 PM CDT
Civil Twilight 5:56 AM CDT 8:57 PM CDT
Nautical Twilight 5:23 AM CDT 9:30 PM CDT
Astronomical Twilight 4:46 AM CDT 10:07 PM CDT
Moon 5:40 PM CDT (6/1) 3:51 AM CDT (6/1)
Length of Visible Light 15h 00m
Length of Day
14h 05m
Waxing Gibbous, 89% of the Moon is Illuminated
Jun 1
Waxing Gibbous
Jun 4
Full
Jun 11
Last Quarter
Jun 19
New
Jun 26
First Quarter

Hourly Weather History & Observations

Time (CDT) Temp. Heat Index Dew Point Humidity Pressure Visibility Wind Dir Wind Speed Gust Speed Precip Events Conditions
12:51 AM 68.0 °F - 64.0 °F 87% 29.95 in 10.0 mi North 5.8 mph - N/A   Clear
1:51 AM 70.0 °F - 55.0 °F 59% 29.95 in 10.0 mi NNE 10.4 mph - N/A   Clear
2:51 AM 66.9 °F - 54.0 °F 63% 29.95 in 10.0 mi NNE 6.9 mph - N/A   Clear
3:51 AM 64.0 °F - 55.0 °F 73% 29.95 in 10.0 mi NNE 6.9 mph - N/A   Clear
4:51 AM 62.1 °F - 55.0 °F 78% 29.96 in 10.0 mi North 5.8 mph - N/A   Clear
5:51 AM 61.0 °F - 54.0 °F 78% 29.98 in 10.0 mi North 6.9 mph - N/A   Clear
6:51 AM 61.0 °F - 54.0 °F 78% 29.99 in 10.0 mi NNW 6.9 mph - N/A   Clear
7:51 AM 66.0 °F - 54.0 °F 65% 29.98 in 10.0 mi NNE 6.9 mph - N/A   Clear
8:51 AM 72.0 °F - 52.0 °F 49% 30.00 in 10.0 mi NE 13.8 mph - N/A   Clear
9:51 AM 75.9 °F - 52.0 °F 43% 30.00 in 10.0 mi NE 8.1 mph - N/A   Clear
10:51 AM 78.1 °F - 50.0 °F 37% 30.00 in 10.0 mi NE 4.6 mph - N/A   Clear
11:51 AM 81.0 °F - 48.9 °F 33% 30.01 in 10.0 mi ENE 5.8 mph - N/A   Clear
12:51 PM 82.9 °F - 48.0 °F 29% 30.00 in 10.0 mi SE 8.1 mph - N/A   Clear
1:51 PM 84.9 °F - 48.0 °F 28% 29.97 in 10.0 mi Calm Calm - N/A   Clear
2:51 PM 87.1 °F - 48.9 °F 27% 29.94 in 10.0 mi Variable 4.6 mph - N/A   Clear
3:51 PM 88.0 °F - 50.0 °F 27% 29.91 in 10.0 mi Variable 4.6 mph - N/A   Clear
4:51 PM 89.1 °F - 51.1 °F 27% 29.88 in 10.0 mi East 9.2 mph - N/A   Clear
5:51 PM 89.1 °F - 51.1 °F 27% 29.87 in 10.0 mi ENE 8.1 mph - N/A   Clear
6:51 PM 87.1 °F - 51.1 °F 29% 29.85 in 10.0 mi East 8.1 mph - N/A   Clear
7:51 PM 82.4 °F 81.4 °F 53.6 °F 37% 29.87 in 10.0 mi ESE 6.9 mph - N/A   Clear
8:51 PM 78.1 °F - 55.0 °F 45% 29.85 in 10.0 mi East 6.9 mph - N/A   Clear
9:51 PM 73.0 °F - 55.9 °F 55% 29.89 in 10.0 mi NE 5.8 mph - N/A   Clear
10:51 PM 73.0 °F - 57.0 °F 57% 29.92 in 10.0 mi East 4.6 mph - N/A   Clear
11:51 PM 71.1 °F - 59.0 °F 66% 29.91 in 10.0 mi SE 6.9 mph - N/A   Clear